[[{"header":{"parameterUnit":"m.s-1","parameterCategory":1,"la1":30.2991,"la2":30.254,"lo1":-89.0895,"lo2":-89.0444,"dy":0.0017,"dx":0.0017,"nx":28,"ny":28,"refTime":"2024-02-10T03:00:00:Z","depth":0,"parameterNumber":2,"parameterNumberName":"U-component_of_WINDS"},"data":[0,0,0,0,0,0,0,0,0,0,0,0,0,0,0,0,0,0,0,0,0,0,0,0,0,0,0,0,0,0,0,0,0,0,0,0,0,0,0,0,0,0,0,0,0,0,0,0,0,0,0,0,0,0,0,0,0,0,-1.4259,-1.4261,0,-1.4421,-1.4423,-1.4425,-1.4498,-1.4498,-1.4498,-1.4497,-1.4667,-1.4672,-1.4677,0,0,0,0,0,0,0,0,0,0,0,0,0,-1.4016,-1.402,-1.4259,-1.4261,-1.4263,-1.4421,-1.4423,-1.4425,-1.4498,-1.4498,-1.4498,-1.4497,-1.4666,-1.4671,-1.4677,0,0,0,0,0,0,0,0,0,0,0,0,0,-1.4144,-1.4021,-1.4259,-1.4318,-1.4325,-1.4421,-1.4423,-1.4426,-1.4498,-1.4498,-1.4497,-1.4497,-1.4664,-1.4671,-1.4678,-1.4727,0,0,-1.4699,-1.4702,0,0,0,0,0,0,0,0,-1.4137,-1.4153,-1.4307,-1.4314,-1.4322,-1.4439,-1.44,-1.4527,-1.4498,-1.4432,-1.4497,-1.4497,-1.4592,-1.4605,-1.4636,-1.4735,-1.4743,-1.47,-1.4704,-1.4707,-1.4709,0,0,0,0,0,0,0,-1.4128,-1.4146,-1.4323,-1.4309,-1.4319,-1.4338,-1.4356,-1.4424,-1.4512,-1.4438,-1.4444,-1.4462,-1.4596,-1.4629,-1.4641,-1.4745,-1.47,-1.4706,-1.471,-1.4713,-1.4894,-1.4895,0,0,0,0,0,0,-1.4109,-1.4138,-1.4318,-1.4328,-1.4227,-1.4343,-1.4363,-1.4402,-1.4511,-1.4528,-1.4462,-1.4465,-1.4617,-1.4632,-1.4647,-1.4713,-1.4707,-1.4714,-1.4718,-1.4894,-1.4895,-1.4895,0,0,0,0,0,0,-1.4103,-1.4124,-1.4312,-1.4235,-1.426,-1.4347,-1.4391,-1.4405,-1.4438,-1.4529,-1.4546,-1.4479,-1.4618,-1.4637,-1.4707,-1.472,-1.4717,-1.4724,-1.4893,-1.4894,-1.4895,-1.4844,0,0,0,0,0,0,-1.4096,-1.4121,-1.414,-1.4235,-1.4264,-1.4367,-1.4391,-1.4409,-1.445,-1.4455,-1.455,-1.4566,-1.4619,-1.4696,-1.4714,-1.4729,-1.4729,-1.4892,-1.4894,-1.4895,-1.4845,-1.4843,-1.4841,0,0,0,0,0,-1.4087,-1.412,-1.4141,-1.4162,-1.4289,-1.4368,-1.4385,-1.4444,-1.4451,-1.4471,-1.4529,-1.4563,-1.4715,-1.4702,-1.4723,-1.4741,-1.4892,-1.4893,-1.4895,-1.4846,-1.4843,-1.4841,0,0,0,0,0,0,-1.4026,-1.4134,-1.4158,-1.4222,-1.4285,-1.438,-1.4407,-1.444,-1.4503,-1.4505,-1.4578,-1.4599,-1.4662,-1.4709,-1.4693,-1.4795,-1.4807,-1.4812,-1.4762,-1.4761,-1.4759,-1.4747,-1.4735,0,0,0,0,0,-1.402,-1.4074,-1.4165,-1.4214,-1.4244,-1.432,-1.4356,-1.4397,-1.4465,-1.4493,-1.4556,-1.4623,-1.4686,-1.4726,-1.4789,-1.4852,-1.4874,-1.4875,-1.4873,-1.4871,-1.4875,-1.4912,-1.4914,-1.4899,-1.4899,-1.4899,0,0,-1.4008,-1.4074,-1.4103,-1.4203,-1.4256,-1.4312,-1.4342,-1.4399,-1.4441,-1.4502,-1.4571,-1.462,-1.47,-1.4766,-1.4799,-1.4807,-1.4884,-1.4873,-1.487,-1.4876,-1.4914,-1.4915,-1.4916,-1.49,-1.49,-1.49,0,0,-1.4015,-1.407,-1.4116,-1.4169,-1.4249,-1.43,-1.431,-1.4401,-1.4435,-1.4506,-1.4553,-1.4605,-1.4711,-1.4766,-1.4808,-1.4835,-1.4869,-1.4854,-1.4845,-1.4881,-1.4882,-1.4883,-1.4894,-1.4896,-1.4858,-1.4858,-1.4858,0,-1.3991,-1.4075,-1.4136,-1.4191,-1.4233,-1.429,-1.4338,-1.4387,-1.4484,-1.4513,-1.452,-1.4656,-1.4713,-1.4793,-1.48,-1.4832,-1.4848,-1.4844,-1.4876,-1.4878,-1.4881,-1.4892,-1.4895,-1.4855,-1.4856,-1.4856,-1.4856,0,-1.4042,-1.4099,-1.4127,-1.4218,-1.4264,-1.4315,-1.4385,-1.4425,-1.4461,-1.4511,-1.4583,-1.4653,-1.4732,-1.4754,-1.479,-1.484,-1.4843,-1.4862,-1.4875,-1.4879,-1.489,-1.4895,-1.4852,-1.4853,-1.4854,-1.4854,0,0,-1.4015,-1.4139,-1.4148,-1.419,-1.4283,-1.4329,-1.4383,-1.4459,-1.4491,-1.4557,-1.4605,-1.4694,-1.4713,-1.476,-1.4803,-1.4834,-1.4853,-1.4851,-1.4854,-1.4849,-1.4913,-1.4897,-1.4901,-1.4875,-1.4876,-1.4877,-1.4906,0,-1.4035,-1.4133,-1.4189,-1.4264,-1.4319,-1.4373,-1.4421,-1.4483,-1.4531,-1.4586,-1.464,-1.4702,-1.4722,-1.4751,-1.4784,-1.4843,-1.4866,-1.4842,-1.4922,-1.4924,-1.49,-1.4907,-1.4891,-1.4915,-1.4911,-1.4912,-1.4912,0,-1.4071,-1.4134,-1.4214,-1.43,-1.4325,-1.4367,-1.4441,-1.4491,-1.4564,-1.4597,-1.465,-1.4693,-1.4754,-1.4761,-1.4847,-1.4829,-1.4865,-1.4899,-1.4901,-1.4911,-1.4918,-1.4917,-1.4924,-1.4927,-1.492,-1.4919,-1.4919,0,-1.4044,-1.4149,-1.421,-1.4245,-1.4347,-1.4375,-1.4419,-1.4492,-1.4533,-1.4599,-1.4627,-1.4699,-1.4738,-1.4793,-1.4855,-1.4855,-1.4935,-1.4948,-1.4965,-1.4963,-1.498,-1.4978,-1.4992,-1.5002,-1.5002,-1.5002,-1.5002,0,-1.4061,-1.4108,-1.4199,-1.4237,-1.4292,-1.4357,-1.441,-1.4459,-1.4523,-1.4572,-1.4624,-1.4669,-1.4748,-1.4804,-1.4853,-1.4917,-1.4934,-1.4964,-1.4976,-1.4959,-1.4955,-1.4984,-1.4984,-1.5003,-1.5003,-1.5002,-1.5002,0,-1.404,-1.4103,-1.4174,-1.4265,-1.4289,-1.4325,-1.4404,-1.4443,-1.4494,-1.4556,-1.4574,-1.4654,-1.4723,-1.479,-1.4882,-1.4915,-1.4978,-1.4995,-1.4953,-1.496,-1.4974,-1.4972,-1.5007,-1.5016,-1.5019,-1.5019,-1.5019,0,-1.4046,-1.4084,-1.4178,-1.4214,-1.4257,-1.4314,-1.4357,-1.4423,-1.4466,-1.4551,-1.4581,-1.4652,-1.4713,-1.482,-1.4888,-1.4959,-1.4978,-1.4986,-1.4989,-1.4971,-1.4979,-1.4976,-1.498,-1.4984,-1.4983,-1.4983,-1.4983,0,-1.4051,-1.4081,-1.4139,-1.4209,-1.4258,-1.4316,-1.4377,-1.4404,-1.4482,-1.4527,-1.4597,-1.4644,-1.4738,-1.4809,-1.4888,-1.4935,-1.4973,-1.4981,-1.4989,-1.4972,-1.4946,-1.4961,-1.4948,-1.498,-1.498,-1.4981,-1.4981,-1.4981,-1.4045,-1.4081,-1.4152,-1.4216,-1.4268,-1.4323,-1.4365,-1.442,-1.4479,-1.4559,-1.4595,-1.4666,-1.4739,-1.4848,-1.4895,-1.4952,-1.4962,-1.4973,-1.4976,-1.4978,-1.4974,-1.4937,-1.4967,-1.4967,-1.4967,-1.4967,-1.4968,0,-1.4053,-1.4102,-1.4159,-1.4242,-1.4292,-1.4321,-1.4389,-1.443,-1.4491,-1.4555,-1.4613,-1.4694,-1.4763,-1.4836,-1.491,-1.4942,-1.4961,-1.4959,-1.4957,-1.4968,-1.4961,-1.4947,-1.4942,-1.4942,-1.4942,-1.4942,-1.4942,-1.4942,-1.4063,-1.4125,-1.4162,-1.4251,-1.43,-1.4368,-1.4405,-1.4457,-1.4508,-1.4595,-1.4652,-1.4698,-1.4767,-1.4846,-1.4911,-1.4931,-1.4956,-1.4949,-1.4974,-1.4967,-1.4968,-1.497,-1.4957,-1.4954,-1.4954,-1.4976,-1.4977,-1.4977]},{"header":{"parameterUnit":"m.s-1","parameterCategory":1,"la1":30.2991,"la2":30.254,"lo1":-89.0895,"lo2":-89.0444,"dy":0.0017,"dx":0.0017,"nx":28,"ny":28,"refTime":"2024-02-10T03:00:00:Z","depth":0,"parameterNumber":3,"parameterNumberName":"V-component_of_WINDS"},"data":[0,0,0,0,0,0,0,0,0,0,0,0,0,0,0,0,0,0,0,0,0,0,0,0,0,0,0,0,0,0,0,0,0,0,0,0,0,0,0,0,0,0,0,0,0,0,0,0,0,0,0,0,0,0,0,0,0,0,3.9564,3.9566,0,3.9768,3.977,3.9773,3.9842,3.9842,3.9841,3.984,4.0048,4.0054,4.006,0,0,0,0,0,0,0,0,0,0,0,0,0,3.9235,3.9241,3.9564,3.9567,3.9569,3.9768,3.977,3.9773,3.9843,3.9842,3.9841,3.984,4.0046,4.0053,4.0061,0,0,0,0,0,0,0,0,0,0,0,0,0,3.9402,3.9243,3.9564,3.9628,3.9635,3.9767,3.9771,3.9774,3.9843,3.9842,3.984,3.9839,4.0044,4.0053,4.0062,4.0145,0,0,4.0091,4.0095,0,0,0,0,0,0,0,0,3.9393,3.9414,3.9616,3.9623,3.9632,3.9779,3.9731,3.9898,3.9843,3.9764,3.984,3.9839,3.9959,3.9976,4.0017,4.0154,4.0163,4.0092,4.0097,4.0102,4.0104,0,0,0,0,0,0,0,3.9381,3.9406,3.9645,3.9618,3.9629,3.9646,3.9669,3.9763,3.9866,3.9771,3.9776,3.98,3.9964,4.0007,4.0022,4.0166,4.0091,4.01,4.0106,4.0109,4.0385,4.0387,0,0,0,0,0,0,3.9359,3.9396,3.9638,3.9651,3.9507,3.9653,3.9678,3.9733,3.9865,3.9884,3.98,3.9802,3.9992,4.0011,4.0029,4.0137,4.0101,4.011,4.0116,4.0383,4.0385,4.0387,0,0,0,0,0,0,3.9351,3.938,3.963,3.9525,3.9558,3.966,3.9721,3.9738,3.9781,3.9888,3.9906,3.9826,3.9992,4.0016,4.0116,4.0145,4.0115,4.0123,4.0381,4.0384,4.0386,4.0352,0,0,0,0,0,0,3.9342,3.9377,3.9409,3.9525,3.9564,3.9713,3.9723,3.9742,3.9797,3.9802,3.9917,3.9934,3.9992,4.0102,4.0126,4.0158,4.0131,4.0379,4.0383,4.0386,4.0351,4.0353,4.0354,0,0,0,0,0,3.933,3.939,3.941,3.9439,3.9606,3.9715,3.9737,3.9802,3.9799,3.9833,3.9902,3.9931,4.0138,4.0111,4.0139,4.0174,4.0378,4.0382,4.0385,4.035,4.0352,4.0354,0,0,0,0,0,0,3.9274,3.9407,3.943,3.953,3.9611,3.9726,3.9771,3.9802,3.9885,3.9886,3.9963,3.9989,4.0083,4.0139,4.0107,4.0263,4.026,4.0269,4.0223,4.0226,4.0228,4.0214,4.0138,0,0,0,0,0,3.9274,3.9351,3.9462,3.954,3.9579,3.9668,3.9717,3.9761,3.9848,3.9882,3.9958,4.004,4.0125,4.0178,4.0261,4.0358,4.0386,4.0396,4.0398,4.0399,4.0407,4.0465,4.0472,4.0399,4.0399,4.0399,0,0,3.9273,3.9355,3.9399,3.9531,3.9598,3.9677,3.9696,3.9778,3.9837,3.9894,3.9994,4.0052,4.015,4.025,4.0297,4.0299,4.0433,4.0404,4.0404,4.0412,4.047,4.0476,4.0482,4.0402,4.0402,4.0401,0,0,3.9313,3.9382,3.9456,3.9523,3.9625,3.9684,3.9702,3.9813,3.9854,3.9956,4.0001,4.0072,4.0215,4.0283,4.0337,4.0404,4.0435,4.0428,4.0439,4.0494,4.05,4.0505,4.0532,4.054,4.0435,4.0435,4.0435,0,3.93,3.9421,3.9489,3.957,3.9627,3.9683,3.9758,3.982,3.9944,3.9983,3.9982,4.0164,4.0233,4.0351,4.0367,4.0408,4.0432,4.0416,4.0493,4.05,4.0506,4.0532,4.0541,4.0434,4.0434,4.0434,4.0434,0,3.94,3.9483,3.953,3.965,3.9712,3.9789,3.987,3.9925,3.9963,4.0022,4.0126,4.0211,4.0313,4.0344,4.0382,4.0468,4.0466,4.0478,4.0477,4.051,4.0536,4.0547,4.0432,4.0433,4.0433,4.0433,0,0,3.9412,3.9569,3.9585,3.9641,3.9758,3.9824,3.9904,4.0005,4.0051,4.0135,4.0205,4.0325,4.0338,4.0399,4.0445,4.0493,4.0544,4.05,4.0504,4.0507,4.0646,4.0638,4.0648,4.0564,4.0566,4.0568,4.0639,0,3.9469,3.9616,3.968,3.9798,3.9876,3.993,4.0001,4.0081,4.0138,4.0213,4.0276,4.0361,4.037,4.0408,4.0458,4.0527,4.0573,4.0522,4.0632,4.0635,4.0608,4.0661,4.0652,4.0715,4.0649,4.0651,4.0652,0,3.9556,3.9641,3.9766,3.9876,3.9911,3.9973,4.0072,4.0142,4.0234,4.0273,4.0341,4.0385,4.0472,4.0464,4.0586,4.055,4.0599,4.0639,4.0643,4.0658,4.0647,4.0679,4.0737,4.0747,4.0668,4.0667,4.0666,0,3.9554,3.97,3.9795,3.984,3.997,4.0013,4.0069,4.0159,4.0216,4.0302,4.034,4.0434,4.0487,4.0559,4.0628,4.0615,4.0744,4.0741,4.078,4.0778,4.0806,4.0804,4.0875,4.0833,4.0833,4.0833,4.0833,0,3.9613,3.9688,3.9796,3.9855,3.9941,4.0014,4.0098,4.0157,4.0238,4.031,4.0361,4.0427,4.0513,4.059,4.0644,4.0739,4.0761,4.0796,4.081,4.0793,4.0788,4.0827,4.0825,4.0836,4.0835,4.0834,4.0834,0,3.9627,3.9702,3.9809,3.9924,3.9954,4.0013,4.0111,4.017,4.023,4.032,4.0345,4.0439,4.0533,4.0608,4.073,4.0766,4.0866,4.088,4.0835,4.0843,4.0879,4.0875,4.0978,4.0997,4.094,4.0941,4.0941,0,3.966,3.972,3.9841,3.9893,3.9949,4.0031,4.009,4.0164,4.0223,4.0333,4.038,4.0477,4.0559,4.0706,4.0786,4.088,4.0898,4.0928,4.0913,4.0895,4.0902,4.0899,4.0906,4.093,4.093,4.0931,4.0931,0,3.9713,3.9747,3.983,3.9927,3.9996,4.0075,4.0155,4.0195,4.0284,4.0348,4.0445,4.0508,4.0634,4.073,4.0833,4.0891,4.0927,4.0935,4.0949,4.0933,4.0906,4.0924,4.0842,4.0932,4.0932,4.0932,4.0932,4.0932,3.974,3.9796,3.989,3.9982,4.005,4.0124,4.0186,4.0254,4.0336,4.0445,4.0483,4.0583,4.0675,4.0817,4.0875,4.0955,4.0958,4.0978,4.0984,4.0989,4.0988,4.0891,4.0974,4.0974,4.0974,4.0974,4.0974,0,3.9797,3.9861,3.9943,4.0055,4.0127,4.0153,4.0244,4.0303,4.039,4.0473,4.0553,4.0665,4.076,4.0846,4.0945,4.0992,4.1011,4.1016,4.1015,4.1028,4.0978,4.0957,4.0999,4.0999,4.0999,4.0999,4.0999,4.0999,3.9835,3.9933,3.9979,4.0111,4.0174,4.0273,4.0323,4.0392,4.0459,4.0582,4.0661,4.0717,4.0802,4.0907,4.0995,4.1019,4.1054,4.1055,4.1082,4.1035,4.1031,4.1028,4.1008,4.1061,4.1061,4.1126,4.1127,4.1127]}]]